Printer-friendly version

IAU Minor Planet Center

Minor Planet Center

MPEC 2004-O32 : 2001 SE286

The following Minor Planet Electronic Circular may be linked-to from your own Web pages, but must not otherwise be redistributed electronically.


Read MPEC 2004-O31 Read MPEC 2004-O33


M.P.E.C. 2004-O32                                Issued 2004 July 26, 15:01 UT

     The Minor Planet Electronic Circulars contain information on unusual
         minor planets and routine data on comets.  They are published
   on behalf of Commission 20 of the International Astronomical Union by the
          Minor Planet Center, Smithsonian Astrophysical Observatory,
                          Cambridge, MA 02138, U.S.A.

                  Supported in part by the Brinson Foundation
             Prepared using the Tamkin Foundation Computer Network

                              MPC@CFA.HARVARD.EDU
          URL http://cfa-www.harvard.edu/iau/mpc.html  ISSN 1523-6714

                                  2001 SE286

                           Revision to MPEC 2001-S73

Additional Observations:
     K01SS6E 2C2004 07 21.55632202 34 02.494+42 17 37.36         20.3 R EO032568
     K01SS6E 2C2004 07 21.55906802 34 03.003+42 17 40.08         20.3 R EO032568
     K01SS6E 2C2004 07 22.51939502 37 01.094+42 32 57.66         20.2 R EO032568
     K01SS6E 2C2004 07 22.52256802 37 01.678+42 33 00.73         20.2 R EO032568

Observer details:
568 Mauna Kea.  Observer F. Bernardi.  2.24-m reflector + CCD.

First and last observations above in comparison with prediction:
Residuals in seconds of arc, reference and Delta-T
040721 568 40.9-  1.9+    040722 568 41.3-  2.3+    MPO 38325   +0.025 day

Orbital elements:
2001 SE286
Epoch 2004 July 14.0 TT = JDT 2453200.5                 MPC
M 312.47068              (2000.0)            P               Q
n   0.33944590     Peri.  199.03711     -0.26879967     -0.85082646
a   2.0352714      Node   268.65774     +0.93191459     -0.11124042
e   0.4568870      Incl.   26.84713     +0.24347883     -0.51353666
P   2.90           H   18.0           G   0.15           U   1
Residuals in seconds of arc (radar residuals in s.d.)
010927 704  0.1-  1.0+    011124 670  0.1+  0.0-    011221 750  0.1-  0.2+
010927 704  0.9-  0.4+    011124 544 (1.4-  4.8-)   011221 750  0.1-  0.1-
010927 704  0.4-  0.2+    011124 544  0.9-  1.0-    011221 750  0.0-  0.1+
010927 704  0.5-  0.1+    011125 544  1.3+  1.7+    011221 750  0.1+  0.2+
010927 704  0.2-  0.2+    011125 544 (1.9-  2.6-)   011221 750  0.3+  0.0+
010928 649  0.1+  0.2-    011125 544  1.2-  0.3+    011221 750  0.1+  0.1-
010928 649  0.1-  0.7-    011125 544 (0.2+  3.5-)   011221 750  0.1-  0.0-
010928 649  0.1-  0.5-    011125 544  0.1+  2.8+    011221 750  0.1-  0.1+
010928 704  0.2-  0.9-    011125 544  0.3-  2.2+    011221 750  0.0-  0.1-
010928 704  0.3-  0.5-    011125 544  0.3-  0.3-    011221 750  0.1-  0.2-
010928 704  0.4-  1.1-    011127 704  0.1+  0.1+    011221 750  0.2-  0.0+
010928 704  0.4-  0.3+    011127 704  0.3+  1.3+    011221 750  0.2-  0.0+
010928 704  0.0-  0.9-    011127 704  0.1+  0.3-    011221 750  0.4-  0.4-
010928 704  0.0-  0.6+    011127 704  0.2+  0.1+    011221 750  0.6-  0.1+
010928 704  0.5-  1.2-    011127 704  0.5+  0.1+    011221 750  0.5-  0.2-
010928 704  0.3-  0.3+    011128 670  0.3+  0.1+    011221 750  0.2-  0.4-
010928 704  0.2-  1.6-    011128 670  0.4+  0.2+    011221 750  0.3-  1.5-
010928 704  0.6-  0.3-    011128 670  0.0-  0.1-    011221 750  0.1-  0.3+
010928 711  0.1+  0.5-    011203 118  0.2+  0.0+    011221 750  0.2+  0.2+
010928 711  0.0+  0.3-    011203 118  0.2+  0.1+    011221 750  0.2+  0.2-
010928 711  0.1+  0.3-    011208 157  1.2-  0.4+    011221 750  0.0+  0.1-
010928 046  0.4+  0.3-    011208 157  0.4-  0.5-    011221 750  0.9-  0.5-
010928 046  0.2-  0.0-    011208 157  0.7-  0.4+    011223 113  0.1+  0.2+
010928 046  0.1-  0.3+    011209 557  0.2-  0.0-    011223 113  0.4+  0.0+
010928 046  0.4+  0.1+    011209 557  0.2-  0.1-    011223 113  0.3+  0.0+
010928 046  0.1+  0.2+    011209 557  0.2-  0.1-    011223 113  0.2+  0.0+
010929 557  0.4+  0.4-    011209 557  0.2-  0.2-    011223 113  0.2+  0.1+
010929 557  0.1+  0.6-    011209 557  0.1-  0.2-    011223 113  0.1+  0.4+
010929 557  0.1-  0.4-    011214 557  0.1-  0.0-    011223 113  0.3+  0.2+
010929 557  0.3-  0.3-    011214 557  0.2-  0.2+    011223 113  0.0+  0.1+
010929 649  0.0-  0.2-    011214 557  0.3-  0.3+    011223 113  0.1-  0.0+
010929 649  0.1-  0.1-    011214 557  0.1+  0.2-    011223 113  0.1+  0.1+
010929 649  0.2+  0.4-    011214 557  0.3-  0.4+    020111 322  1.7-  1.2-
010929 711  0.2-  0.0-    011214 557  0.2-  0.1+    020111 322  0.3-  0.6-
010929 711  0.1+  0.4-    011214 557  0.2-  0.2+    020111 322  0.4-  0.9+
010929 711  0.0+  0.4+    011215 118  0.1+  0.3+    020111 322  0.9+  0.2-
011006 649  0.5+  0.0+    011215 118  0.0+  0.4+    020111 322  0.5-  0.1-
011006 649  0.2+  0.5+    011215 118  0.2-  0.2+    020111 322  0.6-  0.5-
011006 649  0.0+  0.3-    011215 118  0.1+  0.3+    020111 322  0.8-  0.7-
011006 540  1.9-  0.8+    011215 118  0.0-  0.2+    020111 322  0.5-  0.4-
011006 540 (3.0-  0.1-)   011217 704  1.0+  0.3+    020112 413  0.0+  0.0+
011012 118  0.5+  0.7-    011217 704  0.8+  0.2+    020112 413  0.0-  0.1+
011012 118  0.4+  0.7-    011217 704  1.9+  1.8-    020112 413  0.0-  0.2+
011012 118  0.1+  0.6-    011217 704  0.8+  0.1+    020120 428  0.1-  0.5-
011013 118  0.2-  0.1+    011217 704  0.8+  0.2+    020120 428  0.1-  0.5-
011013 118  0.0+  0.0-    011217 704  0.5+  0.4-    020201 428  0.2-  0.3-
011013 118  0.2-  0.1+    011217 704  0.6+  0.0-    020201 428  0.2+  0.2-
011024 649  0.1-  0.4-    011217 704  0.1+  0.4-    020201 428  0.0-  0.4+
011024 649  0.4+  0.0+    011217 704  0.8+  0.3-    020210 428  0.7-  0.3+
011025 402  0.0+  0.0+    011218 251/251D 0.412+    020210 428  0.5-  0.1-
011025 402  0.2+  0.2-    011218 251/251R 0.048+    020219 422  1.5+  0.5-
011025 402  0.4-  0.1+    011219 322  0.2+  0.2-    020219 422  1.0+  1.0-
011029 704  0.1-  0.9+    011219 322  0.3+  0.2-    020306 413  0.2+  0.2+
011029 704  0.4-  0.8+    011219 322  0.2+  0.2-    020306 413  0.1+  0.2+
011029 704  0.7-  0.7+    011221 750  0.1+  0.0-    020306 413  0.2+  0.2+
011029 704  0.4-  1.3+    011221 750  0.0+  0.0+    020403 422  0.1+  0.4+
011029 704  1.4-  0.8+    011221 750  0.0-  0.0-    020403 422  0.1-  0.3-
011102 118  0.1+  0.1+    011221 750  0.1-  0.1-    020403 422  0.4+  0.4-
011102 118  0.0-  0.2+    011221 750  0.2-  0.1+    020501 413  0.1+  0.1+
011104 704  0.2-  0.5+    011221 750  0.2+  0.1-    020501 413  0.1-  0.2+
011104 704  0.3+  0.5-    011221 750  0.0+  0.0-    020501 413  0.0+  0.3+
011104 704  2.0+  1.5-    011221 750  0.2+  0.1-    040721 568  0.1+  0.1+
011117 157  1.9-  0.9-    011221 750  0.0+  0.1-    040721 568  0.2+  0.1+
011117 157  1.7-  1.9+    011221 750  0.0-  0.4+    040722 568  0.1+  0.1+
011117 157  1.1-  1.6+    011221 750  0.0+  0.2-    040722 568  0.0+  0.1+
011124 670  0.2-  0.3+    011221 750  0.0-  0.0-

Ephemeris:
2001 SE286               a,e,i = 2.04, 0.46, 27                  q = 1.1054
Date    TT    R. A. (2000) Decl.     Delta      r     Elong.  Phase     V
2004 07 24    02 41.64   +42 56.2    1.711    1.694    71.8    34.7    21.7
2004 08 03    03 14.94   +45 21.7    1.590    1.633    74.0    36.7    21.6
2004 08 13    03 52.01   +47 19.8    1.473    1.571    75.9    38.7    21.4
2004 08 23    04 32.90   +48 38.4    1.360    1.509    77.5    40.9    21.2
2004 09 02    05 17.14   +49 03.6    1.252    1.448    78.9    43.1    21.0
2004 09 12    06 03.54   +48 21.5    1.150    1.389    79.9    45.5    20.8
2004 09 22    06 50.22   +46 19.1    1.054    1.333    80.7    48.0    20.5
2004 10 02    07 35.26   +42 46.9    0.965    1.279    81.2    50.6    20.3
2004 10 12    08 17.23   +37 39.3    0.884    1.231    81.5    53.3    20.1
2004 10 22    08 55.42   +30 55.1    0.813    1.188    81.5    55.9    20.0
2004 11 01    09 29.87   +22 38.3    0.756    1.153    81.3    58.3    19.8
2004 11 11    10 01.10   +13 02.4    0.714    1.127    81.1    60.2    19.7
2004 11 21    10 29.68   +02 33.8    0.689    1.111    80.9    61.4    19.6
2004 12 01    10 56.29   -08 10.6    0.682    1.105    80.8    61.7    19.6
2004 12 11    11 21.43   -18 32.2    0.690    1.111    81.0    61.1    19.6
2004 12 21    11 45.35   -28 00.6    0.710    1.127    81.7    59.7    19.7
2004 12 31    12 08.09   -36 20.2    0.737    1.153    82.9    57.8    19.7
2005 01 10    12 29.41   -43 28.0    0.766    1.188    84.6    55.5    19.8
2005 01 20    12 48.62   -49 27.2    0.793    1.231    86.9    53.0    19.9
2005 01 30    13 04.79   -54 24.3    0.817    1.279    89.9    50.4    20.0
2005 02 09    13 16.49   -58 25.2    0.835    1.332    93.6    47.7    20.0
2005 02 19    13 22.00   -61 31.6    0.847    1.389    98.0    44.8    20.1
2005 03 01    13 19.93   -63 41.0    0.855    1.448   103.1    41.8    20.1
2005 03 11    13 09.84   -64 45.6    0.860    1.509   108.8    38.6    20.1
2005 03 21    12 53.72   -64 33.3    0.865    1.570   114.9    35.1    20.1
2005 03 31    12 36.01   -62 57.6    0.874    1.632   121.1    31.6    20.1
2005 04 10    12 21.28   -60 02.5    0.891    1.694   126.9    28.2    20.1
2005 04 20    12 12.29   -56 05.3    0.921    1.755   131.4    25.4    20.2
2005 04 30    12 09.37   -51 32.6    0.967    1.816   133.8    23.6    20.3
2005 05 10    12 11.55   -46 51.4    1.031    1.875   133.5    23.0    20.5
2005 05 20    12 17.69   -42 24.4    1.114    1.933   130.8    23.3    20.8
2005 05 30    12 26.65   -38 26.9    1.215    1.990   126.3    24.2    21.0
2005 06 09    12 37.62   -35 05.4    1.333    2.046   120.6    25.3    21.3
2005 06 19    12 50.05   -32 21.6    1.466    2.100   114.4    26.1    21.6
2005 06 29    13 03.49   -30 12.7    1.610    2.152   107.9    26.7    21.9

Gareth V. Williams           (C) Copyright 2004 MPC           M.P.E.C. 2004-O32

Read MPEC 2004-O31 Read MPEC 2004-O33


Our Web policy. Index to the CBAT/MPC/ICQ pages.


Valid HTML 4.01!